Location: Laterina
(43.5167°N, 11.7167°E)
Time: 16:18:22
(UTC+00:00)

ATLAS 2AS CENTAUR R/B - Pass Details

Date: 24 September 2020
Orbit: 939 x 1273 km, 63.7° (Epoch: 19 October)

Event Time Altitude Azimuth Distance (km) Brightness Sun altitude
Rises 20:14:32 0° 242° (WSW) 4,207 6.1 -33.0°
Reaches altitude 10° 20:17:31 10° 249° (WSW) 3,256 5.5 -33.4°
Maximum altitude 20:25:00 43° 318° (NW) 1,720 4.0 -34.5°
Drops below altitude 10° 20:32:24 10° 29° (NNE) 3,216 5.3 -35.5°
Sets 20:35:21 0° 36° (NE) 4,150 5.8 -35.9°
